DW5595 Weather Reports


time (UTC)temp
C
wind
direction
speed
KPH
gust
KPH
rain 1hr
cm
rain 24hr
cm
rain mn
cm
humidity
%
barometer
mb
20260507111523 16 127 0.0 0.0 0.03 0.99 0.23 96 1009.9
20260507110020 16 304 1.6 3.2 0.03 0.99 0.23 96 1010.4
20260507104515 16 146 1.6 3.2 0.00 0.97 0.20 96 1010.2
20260507103013 16 153 0.0 0.0 0.00 0.97 0.20 96 1010.0
20260507101517 16 134 0.0 3.2 0.00 0.97 0.20 96 1009.4
20260507100029 16 150 0.0 1.6 0.00 0.97 0.20 96 1009.8
20260507094524 16 150 0.0 0.0 0.03 0.97 0.20 96 1009.9
20260507093021 16 150 0.0 0.0 0.03 0.97 0.20 96 1009.9
20260507091519 16 150 0.0 4.8 0.03 0.97 0.20 96 1010.0
20260507090020 16 150 0.0 0.0 0.03 0.97 0.20 96 1009.9
20260507084530 16 150 0.0 3.2 0.00 0.94 0.18 96 1010.2
20260507083010 16 311 0.0 0.0 0.00 0.94 0.18 96 1010.5
20260507081523 16 148 0.0 0.0 0.03 0.94 0.18 96 1009.9
20260507080027 16 182 0.0 0.0 0.05 0.94 0.18 96 1009.9
20260507074535 16 292 0.0 0.0 0.05 0.94 0.18 96 1009.9
20260507073021 16 292 0.0 0.0 0.05 0.94 0.18 96 1010.0
20260507071518 16 161 0.0 0.0 0.05 0.91 0.15 95 1009.8
20260507070016 16 294 0.0 0.0 0.03 0.89 0.13 95 1010.7
20260507064512 16 326 0.0 3.2 0.05 0.89 0.13 95 1011.0
20260507063029 16 147 0.0 3.2 0.08 0.89 0.13 95 1011.2
20260507061527 16 153 1.6 4.8 0.05 0.86 0.10 95 1011.6
20260507060024 16 113 0.0 0.0 0.08 0.86 0.10 95 1011.7
20260507054519 16 113 0.0 0.0 0.05 0.84 0.08 95 1011.6
20260507053017 16 57 0.0 0.0 0.05 0.81 0.05 95 1011.8
20260507051529 16 315 0.0 3.2 0.05 0.81 0.05 95 1013.4
20260507050028 16 125 0.0 3.2 0.03 0.79 0.03 95 1013.0
20260507044527 16 141 1.6 4.8 0.03 0.79 0.03 95 1013.5
20260507043008 16 336 0.0 4.8 0.03 0.76 0.00 95 1013.0
20260507041530 16 341 0.0 0.0 0.03 0.76 0.00 95 1012.7
20260507040024 16 132 0.0 0.0 0.05 0.76 0.00 95 1012.3
20260507034525 16 139 0.0 3.2 0.08 0.76 0.76 95 1012.4
20260507033026 16 126 0.0 3.2 0.05 0.74 0.74 95 1012.7
20260507030017 17 145 4.8 19.3 0.08 0.71 0.71 94 1011.5
20260507024508 17 148 1.6 4.8 0.10 0.69 0.69 94 1013.8
20260507023023 17 252 0.0 1.6 0.15 0.69 0.69 94 1013.8
20260507021523 17 150 0.0 1.6 0.15 0.66 0.66 94 1013.3
20260507020029 17 315 0.0 3.2 0.15 0.64 0.64 94 1013.2
20260507014532 17 151 1.6 4.8 0.10 0.58 0.58 94 1012.8
20260507013012 18 150 0.0 6.4 0.10 0.53 0.53 93 1013.1
20260507011516 18 141 0.0 4.8 0.18 0.51 0.51 93 1012.7
20260507010029 18 154 3.2 8.0 0.25 0.48 0.48 93 1012.4
20260507004526 18 152 3.2 9.7 0.28 0.48 0.48 93 1012.0
20260507003025 18 163 1.6 6.4 0.25 0.43 0.43 92 1012.0
20260507001525 19 321 0.0 6.4 0.15 0.33 0.33 92 1012.7
20260507000019 19 175 0.0 4.8 0.08 0.23 0.23 92 1012.9
20260506234518 19 96 0.0 4.8 0.08 0.20 0.20 92 1012.3
20260506233014 19 148 0.0 1.6 0.05 0.18 0.18 92 1011.7
20260506224522 21 171 0.0 0.0 0.00 0.13 0.13 85 1012.2
20260506223025 21 171 0.0 1.6 0.00 0.13 0.13 81 1012.1
20260506221518 22 205 0.0 4.8 0.00 0.13 0.13 77 1011.9
20260506220015 22 348 3.2 4.8 0.00 0.13 0.13 76 1012.1
20260506213025 22 84 3.2 9.7 0.00 0.13 0.13 79 1011.8
20260506211525 21 172 6.4 14.5 0.00 0.13 0.13 79 1011.7
20260506210025 21 153 4.8 9.7 0.00 0.13 0.13 80 1011.8
20260506204524 21 127 6.4 11.3 0.00 0.13 0.13 79 1011.9
20260506203026 21 205 1.6 19.3 0.00 0.13 0.13 79 1012.1
20260506201523 21 34 3.2 29.0 0.00 0.13 0.13 79 1012.6
20260506200015 21 153 3.2 14.5 0.00 0.13 0.13 79 1012.6
20260506194524 21 141 1.6 17.7 0.00 0.13 0.13 80 1012.9
20260506193028 21 130 4.8 14.5 0.00 0.13 0.13 82 1012.9
20260506191525 21 123 3.2 20.9 0.00 0.13 0.13 79 1012.7
20260506190022 20 80 3.2 11.3 0.00 0.13 0.13 82 1012.7
20260506184526 20 214 6.4 17.7 0.00 0.13 0.13 81 1012.7
20260506183018 20 225 3.2 12.9 0.00 0.13 0.13 85 1012.6
20260506180016 18 79 3.2 12.9 0.00 0.13 0.13 87 1012.7
20260506174512 18 126 4.8 12.9 0.00 0.13 0.13 88 1012.3
20260506173009 18 180 3.2 12.9 0.08 0.13 0.13 90 1013.1
20260506171507 17 265 1.6 8.0 0.13 0.13 0.13 90 1014.1
20260506164528 17 179 0.0 6.4 0.13 0.13 0.13 89 1014.5
20260506163022 18 78 0.0 3.2 0.05 0.05 0.05 85 1015.1
20260506161515 19 159 0.0 4.8 0.00 0.00 0.00 81 1015.0
20260506160011 20 315 1.6 4.8 0.00 0.00 0.00 76 1014.3
20260506154510 20 60 0.0 14.5 0.00 0.00 0.00 73 1013.9
20260506153007 20 153 6.4 17.7 0.00 0.00 0.00 72 1013.8
20260506151523 20 162 3.2 9.7 0.00 0.00 0.00 73 1013.4
20260506150022 19 216 4.8 19.3 0.00 0.00 0.00 75 1013.4
20260506143016 18 162 4.8 16.1 0.00 0.00 0.00 78 1013.3
20260506141512 18 140 1.6 6.4 0.00 0.00 0.00 76 1013.7
20260506140010 18 192 0.0 4.8 0.00 0.00 0.00 76 1013.7
20260506134507 17 329 1.6 11.3 0.00 0.00 0.00 77 1013.6
20260506133024 17 182 1.6 8.0 0.00 0.00 0.00 78 1013.0
20260506131532 17 146 0.0 11.3 0.00 0.00 0.00 79 1013.0
20260506130018 16 213 6.4 11.3 0.00 0.00 0.00 80 1013.0
20260506124528 16 242 0.0 11.3 0.00 0.00 0.00 81 1013.1
20260506123015 15 128 1.6 8.0 0.00 0.00 0.00 83 1013.1
20260506121510 15 168 3.2 8.0 0.00 0.00 0.00 83 1013.1
20260506120022 15 134 0.0 6.4 0.00 0.00 0.00 83 1013.6
20260506114524 15 144 0.0 3.2 0.00 0.00 0.00 1014.1
20260506113028 15 132 0.0 4.8 0.00 0.00 0.00 1013.4